Temperature
13 13 13 13 13 13 13 13 13 13 13 13 13 13 13 13 13 13 13 13 13 13 13 13 13 13 13 13 13 13 12 12 12 12 12 12 12 11 11 11 11 11 11
13 13 13 13 13 13 13 13 13 13 13 13 13 12 12 12 12 12 12 12 13 12 12 12 12 12 12 12 12 12 12 12 12 12 12 12 11 11 11 11 11 11 11
12 13 13 13 13 13 13 13 12 12 12 12 12 12 12 12 12 12 12 12 12 12 12 12 12 12 12 12 12 12 12 12 12 11 11 11 11 11 11 11 11 11 11
12 12 12 12 12 12 12 12 12 12 12 12 12 12 12 12 12 12 12 12 12 12 12 12 12 12 12 12 12 12 12 11 11 11 11 11 11 11 11 10 10 10 10
12 12 12 12 12 12 12 12 12 12 12 12 12 12 12 11 12 12 12 12 12 12 12 12 12 12 12 12 12 11 11 11 11 11 11 11 11 10 10 10 10 10 10
11 11 11 12 12 12 12 12 12 12 11 11 11 11 11 11 11 11 11 11 11 11 11 12 12 12 12 12 11 11 11 11 11 11 10 10 10 10 10 10 10 10 10
11 11 11 11 11 11 11 11 11 11 11 11 11 11 11 11 11 11 11 11 11 11 11 11 11 11 11 11 11 11 11 10 10 10 10 10 10 10 10 9 9 9 9
10 11 11 11 11 11 11 11 11 11 11 11 11 11 10 10 10 10 11 11 11 11 11 11 11 11 11 11 11 10 10 10 10 10 10 10 10 10 10 9 9 9 9
10 10 10 10 10 10 11 11 11 11 11 11 11 11 10 10 10 10 10 10 10 10 10 10 10 10 10 10 10 10 10 10 10 10 9 9 9 9 9 9 9 9 9
10 10 10 10 10 10 10 10 10 10 11 10 10 10 11 11 10 10 10 10 10 10 10 10 10 10 10 10 10 10 10 10 9 9 9 9 9 9 9 9 9 9 9
9 9 9 9 10 10 10 10 10 10 10 10 10 10 10 10 10 10 10 10 10 10 10 10 10 9 9 9 9 9 9 9 9 9 9 9 9 9 8 8 8 8 8
9 9 9 9 9 9 9 9 10 10 10 10 10 10 10 10 10 10 10 9 10 9 9 9 9 9 9 9 9 9 9 9 9 9 8 8 8 8 8 8 8 8 8
8 9 9 8 8 8 9 9 9 9 9 9 9 9 10 10 10 10 10 9 9 9 9 9 9 9 9 9 8 9 8 8 8 8 8 8 8 8 8 8 8 8 7
8 8 8 8 8 8 8 8 9 9 9 9 9 9 9 9 9 9 9 9 8 8 8 8 8 8 8 8 8 8 8 8 8 8 8 7 7 7 7 7 7 7 7
7 7 7 7 7 8 8 8 8 8 8 8 8 8 8 8 9 9 9 8 8 8 8 8 8 8 8 8 8 8 7 7 7 7 7 7 7 7 7 7 7 7 7
7 7 7 7 7 7 7 7 7 8 8 8 8 8 8 8 8 8 8 8 8 8 7 7 7 7 7 7 7 7 7 7 7 7 7 6 6 6 6 6 6 6 6
6 6 6 6 7 6 7 7 7 7 7 7 7 7 7 7 7 7 7 7 7 7 7 7 7 7 6 6 6 6 6 6 6 6 6 6 6 6 6 5 5 5 5
6 6 6 6 6 6 6 6 6 6 7 7 7 7 7 7 7 7 7 7 7 7 6 6 6 6 6 6 6 6 6 6 6 6 6 5 5 5 5 5 5 5 5
5 5 5 6 6 6 6 6 6 6 6 6 6 6 6 6 6 6 6 6 6 6 6 6 5 5 5 5 5 5 5 5 5 5 5 5 5 5 4 4 4 4 4
5 5 5 5 5 5 5 5 5 5 5 5 5 5 5 5 6 5 5 5 5 5 5 5 5 4 4 4 4 4 4 4 4 4 4 4 4 4 4 4 4 4 3
4 4 4 4 4 4 4 4 4 4 4 4 4 4 5 5 5 5 5 5 5 5 4 4 4 4 4 4 4 3 3 3 3 3 3 3 3 3 3 3 3 3 3
4 4 4 4 4 4 4 4 4 4 4 4 4 4 4 4 4 4 4 4 4 4 4 4 3 3 3 3 3 3 3 2 2 2 2 2 2 2 3 2 2 2 2
3 3 3 3 3 3 3 3 3 3 3 3 3 3 3 3 3 3 3 3 3 3 3 3 3 3 3 2 2 2 2 2 2 2 1 2 2 2 2 2 2 2 2
3 3 3 3 3 3 3 2 2 2 2 2 2 2 3 3 3 2 2 2 2 2 2 2 2 2 2 2 1 1 1 1 1 1 1 1 1 1 2 1 1 1 1
2 2 2 2 2 2 2 2 2 2 2 2 2 2 2 2 2 2 1 2 2 2 1 1 1 1 1 1 1 1 0 0 0 0 0 -0 0 0 1 1 1 1 1
2 2 2 1 1 1 1 1 1 1 1 1 1 1 1 1 1 1 1 1 1 1 1 1 1 1 1 0 0 0 -0 -0 -1 -1 -0 -1 -1 -1 -1 -1 -0 0 0
Wind_Speed
4 4 4 4 5 6 6 6 6 6 6 6 6 6 5 5 4 4 3 3 4 4 4 5 5 5 6 5 5 5 4 4 4 4 4 4 4 5 4 5 5 6 5
5 4 3 4 4 6 7 7 6 5 4 5 4 4 5 5 4 4 3 2 3 3 3 4 4 5 5 5 5 4 4 4 3 3 4 4 4 4 4 4 5 5 5
7 5 3 3 4 6 7 6 6 5 4 4 3 3 4 4 4 4 4 3 3 3 3 3 3 4 4 4 4 3 3 3 2 2 3 2 3 3 3 4 4 4 4
8 6 4 3 5 6 6 4 4 3 3 3 3 2 2 3 4 4 4 3 3 3 3 3 3 3 3 4 4 4 3 3 3 3 3 3 3 3 2 2 3 3 3
8 7 4 4 6 5 4 4 3 3 3 4 3 2 2 2 3 3 3 3 3 4 4 4 4 3 3 3 3 3 3 3 3 3 3 3 3 3 3 3 2 2 3
7 7 5 5 6 4 3 3 4 3 3 4 4 3 2 1 2 2 2 2 3 4 4 4 3 3 3 3 3 3 3 3 2 2 2 2 3 3 3 3 3 3 3
6 6 4 4 4 4 5 5 4 4 3 3 3 3 2 2 2 1 2 2 2 3 4 4 4 3 3 3 3 3 3 3 2 1 1 2 2 3 3 3 3 3 4
6 6 5 4 4 3 4 5 4 3 3 3 3 3 2 1 1 0 1 1 1 2 3 3 4 4 3 3 3 3 3 3 3 2 2 2 3 3 3 4 4 4 4
5 5 5 4 4 4 4 4 5 6 4 2 2 3 4 4 1 0 0 1 1 1 2 3 3 3 3 3 2 2 2 3 3 3 2 2 3 4 4 5 5 5 4
4 4 5 5 4 3 3 4 4 4 6 4 2 1 1 3 3 2 1 0 1 1 1 2 2 2 3 3 2 2 2 2 3 3 3 3 4 5 5 5 5 5 4
4 4 4 4 4 3 3 3 3 3 4 4 3 2 2 2 2 3 2 1 1 0 1 1 2 2 2 2 2 2 2 2 3 3 4 4 4 5 5 5 5 5 5
2 3 4 4 3 3 3 3 3 3 3 4 3 3 3 3 2 3 3 2 1 0 0 1 1 1 1 1 1 2 2 3 3 4 4 4 5 5 6 6 6 6 6
2 3 3 3 2 2 3 3 3 3 3 4 4 3 2 2 2 3 3 3 1 0 1 1 1 0 0 0 1 1 2 2 3 4 4 4 5 5 6 6 7 7 7
3 3 4 4 3 3 3 3 2 2 2 3 3 2 2 1 2 3 3 4 2 0 0 2 1 1 1 0 1 1 1 2 3 3 4 4 4 5 6 6 7 7 7
3 4 4 4 3 3 3 3 2 2 2 2 2 2 1 1 1 1 2 3 4 3 3 2 2 1 1 1 1 0 1 2 3 3 3 3 4 4 5 6 7 7 8
4 5 5 4 4 3 3 3 3 3 3 2 2 3 2 1 1 1 2 2 2 3 3 2 2 1 1 1 1 1 2 2 3 3 3 3 3 4 5 6 6 7 8
5 6 6 5 5 4 3 3 3 3 3 2 2 2 2 2 1 1 1 2 1 2 2 1 0 0 1 0 2 2 3 3 4 4 4 4 4 5 6 7 7 7 8
5 6 6 6 6 5 4 4 4 3 4 3 2 2 2 2 2 1 1 1 1 1 2 2 1 0 0 1 1 2 3 4 5 5 5 5 6 6 7 7 8 8 9
5 5 6 6 6 5 5 4 5 4 4 3 3 3 2 3 2 1 1 1 1 1 1 2 1 0 0 0 1 2 2 3 5 6 6 6 6 7 8 8 9 9 10
6 5 5 5 5 5 5 4 4 4 4 3 3 2 2 3 3 2 2 2 2 2 1 2 1 1 1 1 0 1 2 2 3 5 5 6 6 7 9 10 10 10 10
6 6 5 5 4 4 5 5 5 5 4 3 2 2 1 2 3 2 2 2 2 2 2 1 1 1 1 1 2 2 3 3 3 2 2 4 5 6 8 9 10 11 11
6 6 5 5 4 3 6 6 5 4 4 4 3 1 1 1 2 2 2 2 3 3 3 2 2 3 3 3 2 2 2 2 3 2 1 4 4 4 6 8 10 11 12
6 5 5 5 4 5 6 6 6 4 4 3 3 2 1 1 1 1 1 1 0 1 3 3 3 4 3 3 3 3 3 3 4 3 2 4 3 5 6 9 12 12 12
6 5 5 4 4 4 5 6 6 4 3 2 2 3 3 2 2 2 2 1 0 1 1 2 3 3 3 3 3 3 3 3 3 3 2 4 3 4 6 9 12 12 12
5 5 5 5 4 4 5 6 5 4 3 2 2 2 3 3 3 2 2 2 1 1 2 2 3 3 3 3 2 0 1 2 4 3 2 2 3 4 5 5 9 10 12
4 4 4 4 4 4 5 6 5 4 3 2 2 2 3 3 4 3 3 3 3 2 1 1 2 2 2 2 2 2 3 2 3 3 2 2 3 3 4 3 4 7 10
Wind_Direction
160 152 151 152 153 149 145 142 141 137 134 134 138 138 136 139 138 140 132 142 160 159 152 147 142 138 130 122 118 116 113 104 94 82 72 65 59 52 52 46 40 40 43
165 160 160 157 160 161 157 153 150 146 143 136 133 136 140 142 143 143 131 132 151 158 157 155 149 142 139 133 123 116 110 101 90 85 73 63 55 52 51 46 41 38 39
170 164 167 173 174 167 155 146 142 138 139 139 141 133 129 133 138 142 133 130 141 151 154 156 154 149 145 142 135 127 113 101 90 72 58 54 55 49 45 38 36 32 30
175 167 172 181 174 165 155 154 155 152 153 149 148 148 128 123 126 135 132 128 134 139 138 136 137 135 137 129 117 109 98 89 83 70 53 48 45 31 23 15 16 17 13
179 173 176 177 168 159 160 168 159 155 156 152 145 128 117 121 124 127 123 129 138 141 140 135 127 120 121 116 106 104 92 81 71 64 57 51 41 26 12 358 349 354 350
177 173 170 172 164 162 166 167 157 145 143 144 127 101 85 105 108 118 129 123 136 142 138 129 123 113 104 97 86 73 61 61 59 57 57 45 30 19 5 1 2 352 341
170 168 167 167 167 175 178 172 157 143 128 128 115 97 49 55 89 101 114 115 114 137 129 124 122 112 103 93 78 66 44 28 37 42 37 18 357 346 341 338 338 336 341
167 168 166 175 174 173 171 173 160 147 144 151 138 130 136 15 350 69 113 138 117 125 122 127 124 113 109 94 67 58 43 19 14 19 8 348 338 327 323 324 321 321 325
165 162 162 162 169 174 179 178 170 161 163 167 147 149 157 192 193 310 104 122 117 119 118 121 117 108 108 95 73 49 33 10 352 343 338 334 325 321 317 318 316 314 314
154 158 155 155 161 166 173 180 177 169 163 173 167 124 139 144 153 163 327 48 101 128 146 124 113 103 98 84 65 44 28 355 340 335 330 325 320 318 316 321 324 320 322
140 144 150 150 155 164 173 169 169 164 165 169 167 152 121 89 109 142 170 192 38 340 154 139 113 106 95 77 53 32 23 3 348 340 337 340 339 338 332 327 328 321 318
146 139 140 147 152 151 164 167 168 160 166 164 164 162 157 154 165 149 157 166 182 281 295 135 131 105 98 70 47 25 22 4 352 340 333 336 339 338 337 333 329 320 314
164 167 151 147 143 142 146 145 158 159 160 161 167 173 170 178 165 158 150 154 152 145 5 290 246 224 234 340 2 2 3 351 346 340 326 332 344 346 343 337 332 327 320
177 163 152 145 142 141 139 138 133 143 143 148 153 151 145 159 158 162 159 151 144 164 241 259 269 250 226 255 307 309 340 340 345 347 339 336 345 344 341 336 330 329 322
162 152 143 140 141 140 142 141 137 136 135 135 137 132 120 120 139 141 149 156 163 180 219 225 232 249 262 273 286 310 313 323 332 337 337 335 340 338 334 330 330 325 322
155 154 151 145 138 135 139 135 126 125 121 115 122 117 111 110 108 116 129 130 151 172 196 209 223 223 270 307 307 317 306 317 324 320 320 320 323 323 320 319 322 322 321
161 162 158 149 143 144 142 136 131 127 124 108 99 118 110 98 109 107 105 114 135 144 185 234 261 220 177 248 340 335 327 319 311 309 310 308 308 310 310 310 312 314 312
159 160 158 154 151 148 147 148 146 141 144 141 134 124 121 111 103 104 115 132 160 163 174 208 249 291 248 260 323 337 338 326 319 311 307 306 305 305 306 304 306 309 309
150 147 150 156 157 155 154 154 152 152 153 155 154 149 146 132 127 127 128 138 161 166 166 182 213 228 272 298 353 331 327 325 320 314 307 303 304 308 308 307 307 306 305
149 146 147 150 152 151 151 149 142 139 136 138 137 142 151 159 166 166 165 161 152 145 147 168 203 223 258 278 223 301 313 309 310 315 305 303 304 305 304 304 302 299 297
147 143 138 138 141 144 150 148 146 141 139 134 126 132 145 159 165 168 169 175 166 167 164 182 214 226 242 246 259 259 280 301 299 299 294 302 304 301 299 300 297 294 293
140 136 140 143 144 154 148 148 149 143 143 144 143 136 127 147 130 113 126 159 182 189 198 207 229 232 244 238 239 252 271 303 297 286 287 298 303 290 298 297 295 295 294
140 139 146 148 153 160 156 153 154 151 150 156 160 165 159 153 117 140 120 91 49 239 219 213 220 235 234 231 222 248 253 258 271 271 283 284 279 275 287 292 296 294 295
149 150 150 151 148 158 158 158 154 150 149 161 174 183 184 190 191 163 145 129 190 274 255 220 214 231 233 230 222 233 244 264 278 275 258 270 278 276 291 290 288 288 294
147 149 151 153 154 166 167 165 157 150 154 169 185 192 190 199 202 184 164 175 210 289 335 289 269 269 273 273 269 234 251 286 291 279 238 244 272 292 287 273 276 284 291
146 145 143 151 161 177 181 178 173 165 167 176 183 197 203 210 213 205 191 191 218 252 262 314 327 311 298 271 251 227 215 245 280 278 236 237 275 304 295 266 273 288 292
Height
1524 1526 1529 1532 1534 1536 1538 1540 1543 1544 1546 1548 1549 1551 1553 1554 1555 1556 1558 1559 1560 1561 1561 1562 1563 1563 1563 1563 1563 1563 1563 1563 1563 1563 1563 1562 1562 1562 1562 1562 1562 1561 1561
1522 1524 1527 1529 1532 1534 1536 1538 1541 1543 1545 1546 1548 1550 1551 1553 1554 1555 1556 1558 1559 1560 1561 1561 1562 1562 1563 1563 1563 1563 1563 1562 1562 1562 1562 1562 1561 1561 1561 1561 1561 1560 1560
1519 1522 1524 1527 1529 1531 1534 1536 1539 1541 1543 1545 1546 1548 1550 1551 1553 1554 1555 1556 1557 1558 1560 1560 1561 1561 1562 1562 1562 1562 1562 1562 1562 1561 1561 1561 1561 1560 1560 1560 1559 1559 1559
1517 1519 1522 1524 1527 1529 1531 1534 1536 1538 1541 1542 1544 1546 1548 1549 1551 1552 1553 1554 1556 1557 1558 1559 1560 1560 1561 1561 1561 1561 1561 1561 1561 1560 1560 1560 1559 1559 1559 1559 1558 1558 1557
1514 1516 1518 1521 1524 1526 1528 1531 1534 1536 1538 1540 1542 1544 1546 1547 1549 1550 1551 1553 1554 1555 1557 1558 1558 1559 1560 1560 1560 1560 1560 1560 1559 1559 1559 1558 1558 1558 1558 1557 1557 1557 1556
1510 1513 1515 1518 1520 1523 1525 1528 1531 1533 1536 1538 1540 1542 1544 1546 1547 1548 1549 1551 1552 1553 1555 1556 1557 1557 1558 1558 1559 1558 1558 1558 1558 1558 1558 1557 1557 1557 1556 1556 1555 1555 1555
1506 1509 1512 1514 1517 1520 1522 1525 1528 1530 1533 1535 1537 1539 1541 1543 1544 1546 1547 1548 1549 1551 1552 1554 1555 1555 1556 1556 1557 1557 1557 1557 1556 1556 1556 1556 1556 1555 1555 1554 1554 1553 1553
1503 1505 1508 1511 1514 1516 1519 1522 1525 1527 1529 1532 1534 1536 1539 1542 1542 1543 1544 1546 1547 1549 1550 1551 1552 1553 1554 1554 1555 1555 1555 1555 1555 1554 1554 1554 1554 1553 1553 1553 1552 1551 1551
1499 1502 1505 1508 1511 1514 1516 1518 1521 1523 1525 1529 1531 1534 1535 1536 1539 1540 1541 1543 1544 1546 1547 1549 1550 1551 1551 1552 1552 1553 1553 1553 1553 1552 1552 1552 1551 1551 1551 1550 1550 1549 1549
1496 1499 1502 1505 1508 1510 1513 1515 1518 1520 1522 1525 1527 1530 1532 1533 1535 1536 1539 1540 1541 1543 1544 1546 1547 1548 1548 1549 1550 1550 1551 1551 1550 1550 1550 1550 1549 1549 1548 1548 1547 1547 1546
1493 1496 1499 1502 1504 1507 1510 1512 1514 1517 1519 1521 1524 1526 1528 1530 1531 1532 1534 1536 1538 1540 1541 1542 1544 1545 1546 1546 1547 1548 1548 1548 1548 1547 1547 1547 1546 1546 1545 1545 1544 1544 1543
1490 1493 1496 1498 1501 1504 1507 1509 1511 1513 1515 1518 1521 1523 1525 1526 1528 1529 1530 1532 1534 1537 1538 1540 1541 1542 1542 1543 1544 1545 1545 1545 1544 1544 1544 1544 1543 1543 1542 1541 1541 1540 1540
1486 1489 1492 1495 1498 1501 1503 1506 1508 1510 1512 1515 1517 1519 1521 1523 1525 1526 1528 1529 1531 1533 1535 1536 1537 1538 1539 1540 1541 1541 1541 1541 1541 1541 1541 1540 1540 1539 1538 1538 1537 1536 1536
1484 1486 1489 1492 1495 1498 1500 1503 1505 1507 1510 1511 1513 1516 1518 1520 1522 1523 1525 1526 1527 1529 1531 1533 1534 1535 1536 1537 1537 1537 1537 1538 1537 1537 1537 1536 1536 1535 1535 1534 1533 1532 1531
1481 1483 1486 1488 1491 1494 1497 1500 1502 1504 1506 1508 1510 1512 1515 1517 1518 1520 1522 1523 1525 1525 1527 1529 1530 1531 1532 1533 1534 1534 1534 1534 1534 1533 1533 1532 1532 1531 1530 1530 1529 1528 1527
1478 1480 1483 1485 1488 1491 1494 1497 1499 1501 1503 1505 1507 1509 1512 1514 1516 1517 1518 1520 1522 1523 1523 1525 1526 1527 1528 1529 1530 1530 1530 1530 1530 1529 1529 1528 1527 1527 1526 1525 1524 1523 1523
1475 1477 1479 1482 1485 1488 1491 1493 1496 1498 1500 1502 1504 1506 1508 1510 1512 1514 1515 1516 1518 1520 1520 1521 1522 1523 1524 1525 1526 1526 1526 1526 1525 1525 1525 1524 1523 1522 1522 1521 1520 1519 1518
1471 1474 1476 1479 1481 1485 1488 1490 1493 1495 1497 1499 1501 1503 1505 1507 1509 1510 1512 1513 1515 1516 1517 1516 1518 1519 1520 1521 1521 1521 1521 1522 1521 1521 1520 1519 1519 1518 1517 1516 1515 1514 1513
1469 1471 1473 1475 1478 1481 1484 1487 1489 1492 1494 1496 1498 1500 1502 1504 1505 1507 1508 1510 1511 1513 1513 1513 1514 1515 1516 1516 1516 1516 1516 1516 1516 1516 1515 1515 1514 1513 1512 1511 1510 1509 1508
1466 1468 1470 1473 1475 1478 1481 1483 1486 1488 1491 1493 1495 1497 1499 1501 1502 1504 1505 1506 1507 1509 1509 1510 1510 1511 1511 1512 1512 1511 1511 1511 1510 1510 1510 1509 1509 1508 1508 1506 1505 1504 1503
1463 1466 1468 1471 1473 1475 1477 1480 1483 1485 1488 1490 1492 1494 1496 1498 1499 1500 1501 1503 1504 1505 1505 1506 1506 1506 1507 1507 1507 1507 1506 1505 1505 1505 1504 1504 1503 1503 1502 1501 1500 1498 1497
1461 1464 1466 1468 1471 1472 1475 1478 1480 1483 1485 1486 1488 1491 1493 1495 1496 1497 1498 1499 1501 1501 1502 1502 1502 1502 1502 1503 1503 1502 1501 1500 1499 1500 1499 1498 1498 1497 1496 1496 1494 1493 1491
1459 1461 1464 1466 1468 1470 1473 1475 1478 1480 1482 1484 1486 1488 1489 1491 1492 1494 1494 1495 1497 1498 1498 1499 1498 1498 1498 1498 1498 1498 1497 1496 1494 1494 1494 1491 1492 1491 1491 1490 1489 1487 1486
1456 1459 1461 1464 1466 1468 1470 1472 1474 1477 1479 1481 1483 1485 1486 1487 1489 1490 1491 1491 1492 1493 1494 1494 1494 1494 1494 1494 1493 1493 1492 1491 1490 1490 1489 1487 1485 1485 1484 1484 1483 1481 1480
1454 1456 1459 1461 1463 1465 1468 1470 1472 1473 1475 1477 1479 1481 1483 1484 1485 1486 1487 1487 1488 1489 1490 1490 1490 1490 1490 1489 1489 1488 1487 1486 1484 1484 1484 1482 1480 1478 1476 1476 1476 1475 1473
1451 1454 1456 1458 1460 1462 1465 1467 1469 1470 1472 1473 1476 1477 1479 1480 1482 1483 1484 1484 1484 1484 1485 1485 1486 1486 1485 1485 1485 1484 1483 1482 1480 1478 1478 1477 1475 1473 1469 1468 1469 1468 1466